Year,Month,Day,Hour,Minute,Value (Times are PST for windgust in km/hr)
2014,02,14,00,00,11.30
2014,02,14,00,01,12.90
2014,02,14,00,02,11.30
2014,02,14,00,03,9.60
2014,02,14,00,04,9.60
2014,02,14,00,05,12.90
2014,02,14,00,06,11.30
2014,02,14,00,07,6.40
2014,02,14,00,08,14.50
2014,02,14,00,09,14.50
2014,02,14,00,10,9.60
2014,02,14,00,11,9.60
2014,02,14,00,12,4.80
2014,02,14,00,13,6.40
2014,02,14,00,14,8.10
2014,02,14,00,15,12.90
2014,02,14,00,16,8.10
2014,02,14,00,17,11.30
2014,02,14,00,18,14.50
2014,02,14,00,19,14.50
2014,02,14,00,20,6.40
2014,02,14,00,21,4.80
2014,02,14,00,22,3.20
2014,02,14,00,23,3.20
2014,02,14,00,24,6.40
2014,02,14,00,25,4.80
2014,02,14,00,26,6.40
2014,02,14,00,27,8.10
2014,02,14,00,28,9.60
2014,02,14,00,29,11.30
2014,02,14,00,30,9.60
2014,02,14,00,31,9.60
2014,02,14,00,32,12.90
2014,02,14,00,33,6.40
2014,02,14,00,34,6.40
2014,02,14,00,35,4.80
2014,02,14,00,36,4.80
2014,02,14,00,37,6.40
2014,02,14,00,38,6.40
2014,02,14,00,39,16.10
2014,02,14,00,40,8.10
2014,02,14,00,41,12.90
2014,02,14,00,42,12.90
2014,02,14,00,43,12.90
2014,02,14,00,44,11.30
2014,02,14,00,45,8.10
2014,02,14,00,46,19.30
2014,02,14,00,47,17.70
2014,02,14,00,48,14.50
2014,02,14,00,49,9.60
2014,02,14,00,50,17.70
2014,02,14,00,51,12.90
2014,02,14,00,52,14.50
2014,02,14,00,53,12.90
2014,02,14,00,54,11.30
2014,02,14,00,55,14.50
2014,02,14,00,56,14.50
2014,02,14,00,57,16.10
2014,02,14,00,58,29.00
2014,02,14,00,59,12.90
2014,02,14,01,00,9.60
2014,02,14,01,01,8.10
2014,02,14,01,02,12.90
2014,02,14,01,03,14.50
2014,02,14,01,04,19.30
2014,02,14,01,05,11.30
2014,02,14,01,06,12.90
2014,02,14,01,07,17.70
2014,02,14,01,08,12.90
2014,02,14,01,09,19.30
2014,02,14,01,10,16.10
2014,02,14,01,11,11.30
2014,02,14,01,12,11.30
2014,02,14,01,13,11.30
2014,02,14,01,14,9.60
2014,02,14,01,15,9.60
2014,02,14,01,16,12.90
2014,02,14,01,17,14.50
2014,02,14,01,18,12.90
2014,02,14,01,19,14.50
2014,02,14,01,20,17.70
2014,02,14,01,21,8.10
2014,02,14,01,22,9.60
2014,02,14,01,23,11.30
2014,02,14,01,24,16.10
2014,02,14,01,25,9.60
2014,02,14,01,26,11.30
2014,02,14,01,27,11.30
2014,02,14,01,28,11.30
2014,02,14,01,29,8.10
2014,02,14,01,30,6.40
2014,02,14,01,31,12.90
2014,02,14,01,32,16.10
2014,02,14,01,33,22.50
2014,02,14,01,34,16.10
2014,02,14,01,35,12.90
2014,02,14,01,36,8.10
2014,02,14,01,37,14.50
2014,02,14,01,38,16.10
2014,02,14,01,39,11.30
2014,02,14,01,40,17.70
2014,02,14,01,41,19.30
2014,02,14,01,42,11.30
2014,02,14,01,43,6.40
2014,02,14,01,44,30.60
2014,02,14,01,45,22.50
2014,02,14,01,46,12.90
2014,02,14,01,47,40.20
2014,02,14,01,48,29.00
2014,02,14,01,49,40.20
2014,02,14,01,50,24.20
2014,02,14,01,51,8.10
2014,02,14,01,52,8.10
2014,02,14,01,53,8.10
2014,02,14,01,54,16.10
2014,02,14,01,55,20.90
2014,02,14,01,56,14.50
2014,02,14,01,57,19.30
2014,02,14,01,58,25.70
2014,02,14,01,59,20.90
2014,02,14,02,00,12.90
2014,02,14,02,01,11.30
2014,02,14,02,02,22.50
2014,02,14,02,03,16.10
2014,02,14,02,04,16.10
2014,02,14,02,05,11.30
2014,02,14,02,06,12.90
2014,02,14,02,07,12.90
2014,02,14,02,08,25.70
2014,02,14,02,09,27.40
2014,02,14,02,10,30.60
2014,02,14,02,11,37.00
2014,02,14,02,12,24.20
2014,02,14,02,13,17.70
2014,02,14,02,14,14.50
2014,02,14,02,15,19.30
2014,02,14,02,16,11.30
2014,02,14,02,17,22.50
2014,02,14,02,18,24.20
2014,02,14,02,19,19.30
2014,02,14,02,20,27.40
2014,02,14,02,21,17.70
2014,02,14,02,22,11.30
2014,02,14,02,23,24.20
2014,02,14,02,24,20.90
2014,02,14,02,25,22.50
2014,02,14,02,26,16.10
2014,02,14,02,27,32.20
2014,02,14,02,28,17.70
2014,02,14,02,29,37.00
2014,02,14,02,30,12.90
2014,02,14,02,31,17.70
2014,02,14,02,32,12.90
2014,02,14,02,33,17.70
2014,02,14,02,34,22.50
2014,02,14,02,35,22.50
2014,02,14,02,36,19.30
2014,02,14,02,37,29.00
2014,02,14,02,38,24.20
2014,02,14,02,39,19.30
2014,02,14,02,40,32.20
2014,02,14,02,41,20.90
2014,02,14,02,42,19.30
2014,02,14,02,43,19.30
2014,02,14,02,44,16.10
2014,02,14,02,45,20.90
2014,02,14,02,46,12.90
2014,02,14,02,47,12.90
2014,02,14,02,48,11.30
2014,02,14,02,49,20.90
2014,02,14,02,50,11.30
2014,02,14,02,51,16.10
2014,02,14,02,52,9.60
2014,02,14,02,53,20.90
2014,02,14,02,54,14.50
2014,02,14,02,55,12.90
2014,02,14,02,56,16.10
2014,02,14,02,57,12.90
2014,02,14,02,58,11.30
2014,02,14,02,59,16.10
2014,02,14,03,00,24.20
2014,02,14,03,01,12.90
2014,02,14,03,02,16.10
2014,02,14,03,03,16.10
2014,02,14,03,04,17.70
2014,02,14,03,05,22.50
2014,02,14,03,06,24.20
2014,02,14,03,07,24.20
2014,02,14,03,08,17.70
2014,02,14,03,09,25.70
2014,02,14,03,10,27.40
2014,02,14,03,11,24.20
2014,02,14,03,12,29.00
2014,02,14,03,13,17.70
2014,02,14,03,14,25.70
2014,02,14,03,15,22.50
2014,02,14,03,16,14.50
2014,02,14,03,17,14.50
2014,02,14,03,18,17.70
2014,02,14,03,19,16.10
2014,02,14,03,20,16.10
2014,02,14,03,21,25.70
2014,02,14,03,22,22.50
2014,02,14,03,23,29.00
2014,02,14,03,24,17.70
2014,02,14,03,25,22.50
2014,02,14,03,26,14.50
2014,02,14,03,27,16.10
2014,02,14,03,28,16.10
2014,02,14,03,29,16.10
2014,02,14,03,30,11.30
2014,02,14,03,31,16.10
2014,02,14,03,32,24.20
2014,02,14,03,33,12.90
2014,02,14,03,34,14.50
2014,02,14,03,35,8.10
2014,02,14,03,36,16.10
2014,02,14,03,37,6.40
2014,02,14,03,38,9.60
2014,02,14,03,39,14.50
2014,02,14,03,40,14.50
2014,02,14,03,41,20.90
2014,02,14,03,42,30.60
2014,02,14,03,43,20.90
2014,02,14,03,44,17.70
2014,02,14,03,45,20.90
2014,02,14,03,46,17.70
2014,02,14,03,47,17.70
2014,02,14,03,48,19.30
2014,02,14,03,49,19.30
2014,02,14,03,50,19.30
2014,02,14,03,51,19.30
2014,02,14,03,52,22.50
2014,02,14,03,53,20.90
2014,02,14,03,54,11.30
2014,02,14,03,55,12.90
2014,02,14,03,56,9.60
2014,02,14,03,57,16.10
2014,02,14,03,58,16.10
2014,02,14,03,59,9.60
2014,02,14,04,00,9.60
2014,02,14,04,01,9.60
2014,02,14,04,02,12.90
2014,02,14,04,03,9.60
2014,02,14,04,04,11.30
2014,02,14,04,05,12.90
2014,02,14,04,06,12.90
2014,02,14,04,07,9.60
2014,02,14,04,08,11.30
2014,02,14,04,09,4.80
2014,02,14,04,10,9.60
2014,02,14,04,11,12.90
2014,02,14,04,12,9.60
2014,02,14,04,13,8.10
2014,02,14,04,14,8.10
2014,02,14,04,15,11.30
2014,02,14,04,16,14.50
2014,02,14,04,17,8.10
2014,02,14,04,18,12.90
2014,02,14,04,19,14.50
2014,02,14,04,20,16.10
2014,02,14,04,21,14.50
2014,02,14,04,22,8.10
2014,02,14,04,23,8.10
2014,02,14,04,24,6.40
2014,02,14,04,25,12.90
2014,02,14,04,26,11.30
2014,02,14,04,27,6.40
2014,02,14,04,28,12.90
2014,02,14,04,29,9.60
2014,02,14,04,30,19.30
2014,02,14,04,31,25.70
2014,02,14,04,32,12.90
2014,02,14,04,33,11.30
2014,02,14,04,34,6.40
2014,02,14,04,35,6.40
2014,02,14,04,36,6.40
2014,02,14,04,37,6.40
2014,02,14,04,38,8.10
2014,02,14,04,39,8.10
2014,02,14,04,40,11.30
2014,02,14,04,41,9.60
2014,02,14,04,42,9.60
2014,02,14,04,43,9.60
2014,02,14,04,44,6.40
2014,02,14,04,45,11.30
2014,02,14,04,46,11.30
2014,02,14,04,47,4.80
2014,02,14,04,48,6.40
2014,02,14,04,49,12.90
2014,02,14,04,50,19.30
2014,02,14,04,51,6.40
2014,02,14,04,52,9.60
2014,02,14,04,53,3.20
2014,02,14,04,54,12.90
2014,02,14,04,55,12.90
2014,02,14,04,56,12.90
2014,02,14,04,57,8.10
2014,02,14,04,58,4.80
2014,02,14,04,59,4.80
2014,02,14,05,00,9.60
2014,02,14,05,01,9.60
2014,02,14,05,02,8.10
2014,02,14,05,03,6.40
2014,02,14,05,04,3.20
2014,02,14,05,05,4.80
2014,02,14,05,06,6.40
2014,02,14,05,07,6.40
2014,02,14,05,08,6.40
2014,02,14,05,09,6.40
2014,02,14,05,10,11.30
2014,02,14,05,11,6.40
2014,02,14,05,12,6.40
2014,02,14,05,13,22.50
2014,02,14,05,14,19.30
2014,02,14,05,15,11.30
2014,02,14,05,16,14.50
2014,02,14,05,17,9.60
2014,02,14,05,18,11.30
2014,02,14,05,19,8.10
2014,02,14,05,20,12.90
2014,02,14,05,21,8.10
2014,02,14,05,22,14.50
2014,02,14,05,23,12.90
2014,02,14,05,24,8.10
2014,02,14,05,25,8.10
2014,02,14,05,26,8.10
2014,02,14,05,27,6.40
2014,02,14,05,28,4.80
2014,02,14,05,29,3.20
2014,02,14,05,30,8.10
2014,02,14,05,31,8.10
2014,02,14,05,32,6.40
2014,02,14,05,33,3.20
2014,02,14,05,34,4.80
2014,02,14,05,35,6.40
2014,02,14,05,36,4.80
2014,02,14,05,37,11.30
2014,02,14,05,38,3.20
2014,02,14,05,39,3.20
2014,02,14,05,40,3.20
2014,02,14,05,41,8.10
2014,02,14,05,42,4.80
2014,02,14,05,43,6.40
2014,02,14,05,44,3.20
2014,02,14,05,45,4.80
2014,02,14,05,46,4.80
2014,02,14,05,47,4.80
2014,02,14,05,48,4.80
2014,02,14,05,49,6.40
2014,02,14,05,50,4.80
2014,02,14,05,51,3.20
2014,02,14,05,52,3.20
2014,02,14,05,53,4.80
2014,02,14,05,54,4.80
2014,02,14,05,55,4.80
2014,02,14,05,56,4.80
2014,02,14,05,57,8.10
2014,02,14,05,58,8.10
2014,02,14,05,59,6.40
2014,02,14,06,00,4.80
2014,02,14,06,01,6.40
2014,02,14,06,02,6.40
2014,02,14,06,03,6.40
2014,02,14,06,04,4.80
2014,02,14,06,05,3.20
2014,02,14,06,06,3.20
2014,02,14,06,07,1.60
2014,02,14,06,08,1.60
2014,02,14,06,10,1.60
2014,02,14,06,11,1.60
2014,02,14,06,12,3.20
2014,02,14,06,13,3.20
2014,02,14,06,14,1.60
2014,02,14,06,15,6.40
2014,02,14,06,16,6.40
2014,02,14,06,17,4.80
2014,02,14,06,18,1.60
2014,02,14,06,19,3.20
2014,02,14,06,20,4.80
2014,02,14,06,21,4.80
2014,02,14,06,22,6.40
2014,02,14,06,23,4.80
2014,02,14,06,24,8.10
2014,02,14,06,25,4.80
2014,02,14,06,26,6.40
2014,02,14,06,27,6.40
2014,02,14,06,28,4.80
2014,02,14,06,29,4.80
2014,02,14,06,30,4.80
2014,02,14,06,31,9.60
2014,02,14,06,32,6.40
2014,02,14,06,33,6.40
2014,02,14,06,34,4.80
2014,02,14,06,35,4.80
2014,02,14,06,36,11.30
2014,02,14,06,37,8.10
2014,02,14,06,38,6.40
2014,02,14,06,39,6.40
2014,02,14,06,40,6.40
2014,02,14,06,41,4.80
2014,02,14,06,42,9.60
2014,02,14,06,43,6.40
2014,02,14,06,44,3.20
2014,02,14,06,45,9.60
2014,02,14,06,46,4.80
2014,02,14,06,47,6.40
2014,02,14,06,48,3.20
2014,02,14,06,49,3.20
2014,02,14,06,50,4.80
2014,02,14,06,51,4.80
2014,02,14,06,52,3.20
2014,02,14,06,53,3.20
2014,02,14,06,54,1.60
2014,02,14,06,55,4.80
2014,02,14,06,56,6.40
2014,02,14,06,57,8.10
2014,02,14,06,58,6.40
2014,02,14,06,59,6.40
2014,02,14,07,00,8.10
2014,02,14,07,01,6.40
2014,02,14,07,02,8.10
2014,02,14,07,03,8.10
2014,02,14,07,04,6.40
2014,02,14,07,05,6.40
2014,02,14,07,06,4.80
2014,02,14,07,07,4.80
2014,02,14,07,08,6.40
2014,02,14,07,09,6.40
2014,02,14,07,10,4.80
2014,02,14,07,11,3.20
2014,02,14,07,12,3.20
2014,02,14,07,13,3.20
2014,02,14,07,14,1.60
2014,02,14,07,15,1.60
2014,02,14,07,16,1.60
2014,02,14,07,17,1.60
2014,02,14,07,18,1.60
2014,02,14,07,19,1.60
2014,02,14,07,20,3.20
2014,02,14,07,21,4.80
2014,02,14,07,22,3.20
2014,02,14,07,23,3.20
2014,02,14,07,24,1.60
2014,02,14,07,27,1.60
2014,02,14,07,28,6.40
2014,02,14,07,29,4.80
2014,02,14,07,30,4.80
2014,02,14,07,31,3.20
2014,02,14,07,32,3.20
2014,02,14,07,33,1.60
2014,02,14,07,34,3.20
2014,02,14,07,35,3.20
2014,02,14,07,36,4.80
2014,02,14,07,37,4.80
2014,02,14,07,38,3.20
2014,02,14,07,39,1.60
2014,02,14,07,40,1.60
2014,02,14,07,41,1.60
2014,02,14,07,42,3.20
2014,02,14,07,43,3.20
2014,02,14,07,44,3.20
2014,02,14,07,45,3.20
2014,02,14,07,46,8.10
2014,02,14,07,47,8.10
2014,02,14,07,48,11.30
2014,02,14,07,49,14.50
2014,02,14,07,50,8.10
2014,02,14,07,51,4.80
2014,02,14,07,52,1.60
2014,02,14,07,53,4.80
2014,02,14,07,54,4.80
2014,02,14,07,55,4.80
2014,02,14,07,56,4.80
2014,02,14,07,57,4.80
2014,02,14,07,58,6.40
2014,02,14,07,59,6.40
2014,02,14,08,00,4.80
2014,02,14,08,01,4.80
2014,02,14,08,02,6.40
2014,02,14,08,03,4.80
2014,02,14,08,04,4.80
2014,02,14,08,05,6.40
2014,02,14,08,06,6.40
2014,02,14,08,07,4.80
2014,02,14,08,08,6.40
2014,02,14,08,09,4.80
2014,02,14,08,10,12.90
2014,02,14,08,11,9.60
2014,02,14,08,12,6.40
2014,02,14,08,13,4.80
2014,02,14,08,14,4.80
2014,02,14,08,15,4.80
2014,02,14,08,16,4.80
2014,02,14,08,17,8.10
2014,02,14,08,18,8.10
2014,02,14,08,19,6.40
2014,02,14,08,20,4.80
2014,02,14,08,21,6.40
2014,02,14,08,22,4.80
2014,02,14,08,23,3.20
2014,02,14,08,24,6.40
2014,02,14,08,25,6.40
2014,02,14,08,26,4.80
2014,02,14,08,27,4.80
2014,02,14,08,28,3.20
2014,02,14,08,29,3.20
2014,02,14,08,30,3.20
2014,02,14,08,31,4.80
2014,02,14,08,32,8.10
2014,02,14,08,33,4.80
2014,02,14,08,34,4.80
2014,02,14,08,35,3.20
2014,02,14,08,36,3.20
2014,02,14,08,37,8.10
2014,02,14,08,38,6.40
2014,02,14,08,39,6.40
2014,02,14,08,40,6.40
2014,02,14,08,41,3.20
2014,02,14,08,42,3.20
2014,02,14,08,43,4.80
2014,02,14,08,44,4.80
2014,02,14,08,45,6.40
2014,02,14,08,46,4.80
2014,02,14,08,47,3.20
2014,02,14,08,48,4.80
2014,02,14,08,49,4.80
2014,02,14,08,50,3.20
2014,02,14,08,51,3.20
2014,02,14,08,52,1.60
2014,02,14,08,53,4.80
2014,02,14,08,54,4.80
2014,02,14,08,55,3.20
2014,02,14,08,56,3.20
2014,02,14,08,57,3.20
2014,02,14,08,58,4.80
2014,02,14,08,59,3.20
2014,02,14,09,00,1.60
2014,02,14,09,01,3.20
2014,02,14,09,02,1.60
2014,02,14,09,03,3.20
2014,02,14,09,04,3.20
2014,02,14,09,05,3.20
2014,02,14,09,06,3.20
2014,02,14,09,07,4.80
2014,02,14,09,08,4.80
2014,02,14,09,09,3.20
2014,02,14,09,10,6.40
2014,02,14,09,11,6.40
2014,02,14,09,12,6.40
2014,02,14,09,13,4.80
2014,02,14,09,14,9.60
2014,02,14,09,15,9.60
2014,02,14,09,16,6.40
2014,02,14,09,17,6.40
2014,02,14,09,18,6.40
2014,02,14,09,19,6.40
2014,02,14,09,20,6.40
2014,02,14,09,21,4.80
2014,02,14,09,22,4.80
2014,02,14,09,23,4.80
2014,02,14,09,24,1.60
2014,02,14,09,25,4.80
2014,02,14,09,26,8.10
2014,02,14,09,27,11.30
2014,02,14,09,28,9.60
2014,02,14,09,29,6.40
2014,02,14,09,30,6.40
2014,02,14,09,31,6.40
2014,02,14,09,32,3.20
2014,02,14,09,33,6.40
2014,02,14,09,34,6.40
2014,02,14,09,35,6.40
2014,02,14,09,36,6.40
2014,02,14,09,37,4.80
2014,02,14,09,38,12.90
2014,02,14,09,39,9.60
2014,02,14,09,40,8.10
2014,02,14,09,41,3.20
2014,02,14,09,42,3.20
2014,02,14,09,43,4.80
2014,02,14,09,44,24.20
2014,02,14,09,45,12.90
2014,02,14,09,46,14.50
2014,02,14,09,47,14.50
2014,02,14,09,48,11.30
2014,02,14,09,49,9.60
2014,02,14,09,50,6.40
2014,02,14,09,51,8.10
2014,02,14,09,52,9.60
2014,02,14,09,53,6.40
2014,02,14,09,54,4.80
2014,02,14,09,55,9.60
2014,02,14,09,56,8.10
2014,02,14,09,57,11.30
2014,02,14,09,58,6.40
2014,02,14,09,59,6.40
2014,02,14,10,00,4.80
2014,02,14,10,01,6.40
2014,02,14,10,02,8.10
2014,02,14,10,03,4.80
2014,02,14,10,04,4.80
2014,02,14,10,05,6.40
2014,02,14,10,06,6.40
2014,02,14,10,07,4.80
2014,02,14,10,08,8.10
2014,02,14,10,09,8.10
2014,02,14,10,10,6.40
2014,02,14,10,11,4.80
2014,02,14,10,12,3.20
2014,02,14,10,13,3.20
2014,02,14,10,14,3.20
2014,02,14,10,15,4.80
2014,02,14,10,16,4.80
2014,02,14,10,17,4.80
2014,02,14,10,18,3.20
2014,02,14,10,19,6.40
2014,02,14,10,20,4.80
2014,02,14,10,21,3.20
2014,02,14,10,22,4.80
2014,02,14,10,23,4.80
2014,02,14,10,24,4.80
2014,02,14,10,25,6.40
2014,02,14,10,26,4.80
2014,02,14,10,27,3.20
2014,02,14,10,28,8.10
2014,02,14,10,29,6.40
2014,02,14,10,30,6.40
2014,02,14,10,31,3.20
2014,02,14,10,32,6.40
2014,02,14,10,33,4.80
2014,02,14,10,34,4.80
2014,02,14,10,35,3.20
2014,02,14,10,36,4.80
2014,02,14,10,37,8.10
2014,02,14,10,38,8.10
2014,02,14,10,39,9.60
2014,02,14,10,40,4.80
2014,02,14,10,41,6.40
2014,02,14,10,42,8.10
2014,02,14,10,43,6.40
2014,02,14,10,44,8.10
2014,02,14,10,45,11.30
2014,02,14,10,46,6.40
2014,02,14,10,47,6.40
2014,02,14,10,48,6.40
2014,02,14,10,49,6.40
2014,02,14,10,50,9.60
2014,02,14,10,51,4.80
2014,02,14,10,52,4.80
2014,02,14,10,53,11.30
2014,02,14,10,54,8.10
2014,02,14,10,55,4.80
2014,02,14,10,56,3.20
2014,02,14,10,57,6.40
2014,02,14,10,58,6.40
2014,02,14,10,59,4.80
2014,02,14,11,00,6.40
2014,02,14,11,01,4.80
2014,02,14,11,02,6.40
2014,02,14,11,03,4.80
2014,02,14,11,04,4.80
2014,02,14,11,05,4.80
2014,02,14,11,06,4.80
2014,02,14,11,07,3.20
2014,02,14,11,08,1.60
2014,02,14,11,09,3.20
2014,02,14,11,10,1.60
2014,02,14,11,11,1.60
2014,02,14,11,12,3.20
2014,02,14,11,13,1.60
2014,02,14,11,14,3.20
2014,02,14,11,15,1.60
2014,02,14,11,16,4.80
2014,02,14,11,17,4.80
2014,02,14,11,18,3.20
2014,02,14,11,19,3.20
2014,02,14,11,20,4.80
2014,02,14,11,21,8.10
2014,02,14,11,22,4.80
2014,02,14,11,23,4.80
2014,02,14,11,24,4.80
2014,02,14,11,25,3.20
2014,02,14,11,26,3.20
2014,02,14,11,27,3.20
2014,02,14,11,28,6.40
2014,02,14,11,29,6.40
2014,02,14,11,30,6.40
2014,02,14,11,31,6.40
2014,02,14,11,32,8.10
2014,02,14,11,33,6.40
2014,02,14,11,34,3.20
2014,02,14,11,35,6.40
2014,02,14,11,36,4.80
2014,02,14,11,37,4.80
2014,02,14,11,38,3.20
2014,02,14,11,39,4.80
2014,02,14,11,40,4.80
2014,02,14,11,41,9.60
2014,02,14,11,42,11.30
2014,02,14,11,43,8.10
2014,02,14,11,44,4.80
2014,02,14,11,45,3.20
2014,02,14,11,46,4.80
2014,02,14,11,47,3.20
2014,02,14,11,48,1.60
2014,02,14,11,49,1.60
2014,02,14,11,50,4.80
2014,02,14,11,51,4.80
2014,02,14,11,52,4.80
2014,02,14,11,53,3.20
2014,02,14,11,54,4.80
2014,02,14,11,55,1.60
2014,02,14,11,56,3.20
2014,02,14,11,57,3.20
2014,02,14,11,58,4.80
2014,02,14,11,59,4.80
2014,02,14,12,00,4.80
2014,02,14,12,01,4.80
2014,02,14,12,02,6.40
2014,02,14,12,03,8.10
2014,02,14,12,04,8.10
2014,02,14,12,05,8.10
2014,02,14,12,06,6.40
2014,02,14,12,07,9.60
2014,02,14,12,08,9.60
2014,02,14,12,09,8.10
2014,02,14,12,10,6.40
2014,02,14,12,11,11.30
2014,02,14,12,12,14.50
2014,02,14,12,13,8.10
2014,02,14,12,14,6.40
2014,02,14,12,15,8.10
2014,02,14,12,16,12.90
2014,02,14,12,17,6.40
2014,02,14,12,18,6.40
2014,02,14,12,19,9.60
2014,02,14,12,20,8.10
2014,02,14,12,21,8.10
2014,02,14,12,22,12.90
2014,02,14,12,23,12.90
2014,02,14,12,24,9.60
2014,02,14,12,25,8.10
2014,02,14,12,26,12.90
2014,02,14,12,27,12.90
2014,02,14,12,28,8.10
2014,02,14,12,29,8.10
2014,02,14,12,30,4.80
2014,02,14,12,31,11.30
2014,02,14,12,32,8.10
2014,02,14,12,33,8.10
2014,02,14,12,34,12.90
2014,02,14,12,35,11.30
2014,02,14,12,36,8.10
2014,02,14,12,37,6.40
2014,02,14,12,38,12.90
2014,02,14,12,39,12.90
2014,02,14,12,40,11.30
2014,02,14,12,41,6.40
2014,02,14,12,42,16.10
2014,02,14,12,43,8.10
2014,02,14,12,44,16.10
2014,02,14,12,45,14.50
2014,02,14,12,46,6.40
2014,02,14,12,47,11.30
2014,02,14,12,48,8.10
2014,02,14,12,49,6.40
2014,02,14,12,50,11.30
2014,02,14,12,51,8.10
2014,02,14,12,52,6.40
2014,02,14,12,53,12.90
2014,02,14,12,54,11.30
2014,02,14,12,55,11.30
2014,02,14,12,56,12.90
2014,02,14,12,57,12.90
2014,02,14,12,58,4.80
2014,02,14,12,59,4.80
2014,02,14,13,00,12.90
2014,02,14,13,01,11.30
2014,02,14,13,02,4.80
2014,02,14,13,03,3.20
2014,02,14,13,04,4.80
2014,02,14,13,05,8.10
2014,02,14,13,06,6.40
2014,02,14,13,07,1.60
2014,02,14,13,08,3.20
2014,02,14,13,09,6.40
2014,02,14,13,10,6.40
2014,02,14,13,11,4.80
2014,02,14,13,12,6.40
2014,02,14,13,13,8.10
2014,02,14,13,14,8.10
2014,02,14,13,15,6.40
2014,02,14,13,16,6.40
2014,02,14,13,17,6.40
2014,02,14,13,18,4.80
2014,02,14,13,19,4.80
2014,02,14,13,20,3.20
2014,02,14,13,21,8.10
2014,02,14,13,22,6.40
2014,02,14,13,23,6.40
2014,02,14,13,24,8.10
2014,02,14,13,25,6.40
2014,02,14,13,26,6.40
2014,02,14,13,27,4.80
2014,02,14,13,28,3.20
2014,02,14,13,29,4.80
2014,02,14,13,30,6.40
2014,02,14,13,31,4.80
2014,02,14,13,32,6.40
2014,02,14,13,33,9.60
2014,02,14,13,34,8.10
2014,02,14,13,35,8.10
2014,02,14,13,36,11.30
2014,02,14,13,37,11.30
2014,02,14,13,38,12.90
2014,02,14,13,39,12.90
2014,02,14,13,40,6.40
2014,02,14,13,41,8.10
2014,02,14,13,42,6.40
2014,02,14,13,43,6.40
2014,02,14,13,44,6.40
2014,02,14,13,45,6.40
2014,02,14,13,46,4.80
2014,02,14,13,47,8.10
2014,02,14,13,48,9.60
2014,02,14,13,49,14.50
2014,02,14,13,50,14.50
2014,02,14,13,51,12.90
2014,02,14,13,52,9.60
2014,02,14,13,53,4.80
2014,02,14,13,54,4.80
2014,02,14,13,55,4.80
2014,02,14,13,56,4.80
2014,02,14,13,57,8.10
2014,02,14,13,58,9.60
2014,02,14,13,59,8.10
2014,02,14,14,00,6.40
2014,02,14,14,01,4.80
2014,02,14,14,02,16.10
2014,02,14,14,03,4.80
2014,02,14,14,04,4.80
2014,02,14,14,05,6.40
2014,02,14,14,06,4.80
2014,02,14,14,07,6.40
2014,02,14,14,08,9.60
2014,02,14,14,09,12.90
2014,02,14,14,10,4.80
2014,02,14,14,11,8.10
2014,02,14,14,12,6.40
2014,02,14,14,13,8.10
2014,02,14,14,14,8.10
2014,02,14,14,15,6.40
2014,02,14,14,16,6.40
2014,02,14,14,17,3.20
2014,02,14,14,18,9.60
2014,02,14,14,19,9.60
2014,02,14,14,20,11.30
2014,02,14,14,21,8.10
2014,02,14,14,22,12.90
2014,02,14,14,23,12.90
2014,02,14,14,24,14.50
2014,02,14,14,25,9.60
2014,02,14,14,26,9.60
2014,02,14,14,27,9.60
2014,02,14,14,28,6.40
2014,02,14,14,29,3.20
2014,02,14,14,30,6.40
2014,02,14,14,31,4.80
2014,02,14,14,32,9.60
2014,02,14,14,33,8.10
2014,02,14,14,34,4.80
2014,02,14,14,35,4.80
2014,02,14,14,36,3.20
2014,02,14,14,37,4.80
2014,02,14,14,38,3.20
2014,02,14,14,39,4.80
2014,02,14,14,40,12.90
2014,02,14,14,41,9.60
2014,02,14,14,42,6.40
2014,02,14,14,43,12.90
2014,02,14,14,44,12.90
2014,02,14,14,45,11.30
2014,02,14,14,46,14.50
2014,02,14,14,47,8.10
2014,02,14,14,48,20.90
2014,02,14,14,49,17.70
2014,02,14,14,50,16.10
2014,02,14,14,51,12.90
2014,02,14,14,52,6.40
2014,02,14,14,53,8.10
2014,02,14,14,54,11.30
2014,02,14,14,55,6.40
2014,02,14,14,56,9.60
2014,02,14,14,57,22.50
2014,02,14,14,58,14.50
2014,02,14,14,59,9.60
2014,02,14,15,00,4.80
2014,02,14,15,01,8.10
2014,02,14,15,02,12.90
2014,02,14,15,03,9.60
2014,02,14,15,04,12.90
2014,02,14,15,05,11.30
2014,02,14,15,06,8.10
2014,02,14,15,07,4.80
2014,02,14,15,08,9.60
2014,02,14,15,09,8.10
2014,02,14,15,10,3.20
2014,02,14,15,11,6.40
2014,02,14,15,12,9.60
2014,02,14,15,13,8.10
2014,02,14,15,14,4.80
2014,02,14,15,15,3.20
2014,02,14,15,16,3.20
2014,02,14,15,17,3.20
2014,02,14,15,18,3.20
2014,02,14,15,19,6.40
2014,02,14,15,20,4.80
2014,02,14,15,21,1.60
2014,02,14,15,22,4.80
2014,02,14,15,23,6.40
2014,02,14,15,24,6.40
2014,02,14,15,25,4.80
2014,02,14,15,26,16.10
2014,02,14,15,27,14.50
2014,02,14,15,28,6.40
2014,02,14,15,29,6.40
2014,02,14,15,30,6.40
2014,02,14,15,31,8.10
2014,02,14,15,32,8.10
2014,02,14,15,33,11.30
2014,02,14,15,34,11.30
2014,02,14,15,35,11.30
2014,02,14,15,36,14.50
2014,02,14,15,37,14.50
2014,02,14,15,38,11.30
2014,02,14,15,39,16.10
2014,02,14,15,40,20.90
2014,02,14,15,41,14.50
2014,02,14,15,42,9.60
2014,02,14,15,43,17.70
2014,02,14,15,44,25.70
2014,02,14,15,45,17.70
2014,02,14,15,46,22.50
2014,02,14,15,47,24.20
2014,02,14,15,48,24.20
2014,02,14,15,49,20.90
2014,02,14,15,50,6.40
2014,02,14,15,51,25.70
2014,02,14,15,52,25.70
2014,02,14,15,53,24.20
2014,02,14,15,54,20.90
2014,02,14,15,55,30.60
2014,02,14,15,56,27.40
2014,02,14,15,57,22.50
2014,02,14,15,58,19.30
2014,02,14,15,59,20.90
2014,02,14,16,00,20.90
2014,02,14,16,01,12.90
2014,02,14,16,02,19.30
2014,02,14,16,03,17.70
2014,02,14,16,04,17.70
2014,02,14,16,05,17.70
2014,02,14,16,06,29.00
2014,02,14,16,07,22.50
2014,02,14,16,08,20.90
2014,02,14,16,09,11.30
2014,02,14,16,10,19.30
2014,02,14,16,11,20.90
2014,02,14,16,12,12.90
2014,02,14,16,13,16.10
2014,02,14,16,14,22.50
2014,02,14,16,15,17.70
2014,02,14,16,16,12.90
2014,02,14,16,17,12.90
2014,02,14,16,18,17.70
2014,02,14,16,19,17.70
2014,02,14,16,20,22.50
2014,02,14,16,21,14.50
2014,02,14,16,22,14.50
2014,02,14,16,23,19.30
2014,02,14,16,24,17.70
2014,02,14,16,25,22.50
2014,02,14,16,26,22.50
2014,02,14,16,27,24.20
2014,02,14,16,28,17.70
2014,02,14,16,29,9.60
2014,02,14,16,30,12.90
2014,02,14,16,31,14.50
2014,02,14,16,32,19.30
2014,02,14,16,33,17.70
2014,02,14,16,34,24.20
2014,02,14,16,35,16.10
2014,02,14,16,36,27.40
2014,02,14,16,37,14.50
2014,02,14,16,38,12.90
2014,02,14,16,39,17.70
2014,02,14,16,40,16.10
2014,02,14,16,41,16.10
2014,02,14,16,42,17.70
2014,02,14,16,43,17.70
2014,02,14,16,44,9.60
2014,02,14,16,45,17.70
2014,02,14,16,46,19.30
2014,02,14,16,47,17.70
2014,02,14,16,48,11.30
2014,02,14,16,49,16.10
2014,02,14,16,50,12.90
2014,02,14,16,51,11.30
2014,02,14,16,52,12.90
2014,02,14,16,53,11.30
2014,02,14,16,54,11.30
2014,02,14,16,55,11.30
2014,02,14,16,56,14.50
2014,02,14,16,57,19.30
2014,02,14,16,58,17.70
2014,02,14,16,59,11.30
2014,02,14,17,00,12.90
2014,02,14,17,01,12.90
2014,02,14,17,02,20.90
2014,02,14,17,03,16.10
2014,02,14,17,04,11.30
2014,02,14,17,05,9.60
2014,02,14,17,06,14.50
2014,02,14,17,07,12.90
2014,02,14,17,08,11.30
2014,02,14,17,09,19.30
2014,02,14,17,10,16.10
2014,02,14,17,11,16.10
2014,02,14,17,12,14.50
2014,02,14,17,13,11.30
2014,02,14,17,14,17.70
2014,02,14,17,15,20.90
2014,02,14,17,16,17.70
2014,02,14,17,17,14.50
2014,02,14,17,18,14.50
2014,02,14,17,19,12.90
2014,02,14,17,20,14.50
2014,02,14,17,21,19.30
2014,02,14,17,22,14.50
2014,02,14,17,23,16.10
2014,02,14,17,24,16.10
2014,02,14,17,25,16.10
2014,02,14,17,26,6.40
2014,02,14,17,27,17.70
2014,02,14,17,28,14.50
2014,02,14,17,29,14.50
2014,02,14,17,30,12.90
2014,02,14,17,31,19.30
2014,02,14,17,32,12.90
2014,02,14,17,33,11.30
2014,02,14,17,34,16.10
2014,02,14,17,35,17.70
2014,02,14,17,36,11.30
2014,02,14,17,37,17.70
2014,02,14,17,38,19.30
2014,02,14,17,39,20.90
2014,02,14,17,40,12.90
2014,02,14,17,41,17.70
2014,02,14,17,42,16.10
2014,02,14,17,43,19.30
2014,02,14,17,44,22.50
2014,02,14,17,45,19.30
2014,02,14,17,46,19.30
2014,02,14,17,47,16.10
2014,02,14,17,48,14.50
2014,02,14,17,49,11.30
2014,02,14,17,50,22.50